TimeEDT,TemperatureF,Dew PointF,Humidity,Sea Level PressureIn,VisibilityMPH,Wind Direction,Wind SpeedMPH,Gust SpeedMPH,PrecipitationIn,Events,Conditions,WindDirDegrees,DateUTC
12:54 AM,69.1,66.9,93,29.98,9.0,Calm,Calm,-,N/A,,Scattered Clouds,0,2013-08-31 04:54:00
1:54 AM,68.0,66.9,96,29.96,8.0,Calm,Calm,-,N/A,,Mostly Cloudy,0,2013-08-31 05:54:00
2:54 AM,68.0,66.9,96,29.95,8.0,Calm,Calm,-,N/A,,Clear,0,2013-08-31 06:54:00
3:54 AM,68.0,66.9,96,29.95,6.0,Calm,Calm,-,N/A,,Clear,0,2013-08-31 07:54:00
4:54 AM,66.0,66.0,100,29.95,5.0,Calm,Calm,-,N/A,,Clear,0,2013-08-31 08:54:00
5:54 AM,66.0,66.0,100,29.95,5.0,Calm,Calm,-,N/A,,Clear,0,2013-08-31 09:54:00
6:54 AM,66.9,66.0,97,29.95,5.0,Calm,Calm,-,N/A,,Clear,0,2013-08-31 10:54:00
7:54 AM,69.1,68.0,96,29.96,5.0,Calm,Calm,-,N/A,,Clear,0,2013-08-31 11:54:00
8:54 AM,73.0,70.0,90,29.96,8.0,SSW,4.6,-,N/A,,Clear,200,2013-08-31 12:54:00
9:54 AM,78.1,72.0,81,29.97,9.0,Calm,Calm,-,N/A,,Clear,0,2013-08-31 13:54:00
10:54 AM,80.1,73.0,79,29.97,9.0,SSW,6.9,-,N/A,,Partly Cloudy,200,2013-08-31 14:54:00
11:54 AM,82.9,73.0,72,29.96,10.0,SSW,8.1,-,N/A,,Partly Cloudy,210,2013-08-31 15:54:00
12:54 PM,84.0,73.0,69,29.95,10.0,Variable,4.6,-,N/A,,Mostly Cloudy,0,2013-08-31 16:54:00
1:54 PM,86.0,73.0,65,29.93,10.0,SSW,8.1,-,N/A,,Overcast,200,2013-08-31 17:54:00
2:54 PM,86.0,73.0,65,29.90,10.0,South,8.1,-,N/A,,Scattered Clouds,190,2013-08-31 18:54:00
3:54 PM,87.1,72.0,61,29.89,10.0,South,6.9,-,N/A,,Partly Cloudy,180,2013-08-31 19:54:00
4:37 PM,87.8,71.6,58,29.91,10.0,Variable,4.6,-,N/A,Thunderstorm,Scattered Clouds,0,2013-08-31 20:37:00
4:54 PM,86.0,71.1,61,29.89,10.0,SSW,8.1,-,N/A,Thunderstorm,Scattered Clouds,200,2013-08-31 20:54:00
5:40 PM,75.2,69.8,83,29.94,1.5,Variable,6.9,-,0.10,Rain-Thunderstorm,Light Thunderstorms and Rain,0,2013-08-31 21:40:00
5:54 PM,72.0,71.1,97,29.92,1.2,Calm,Calm,-,0.20,Rain-Thunderstorm,Heavy Thunderstorms and Rain,0,2013-08-31 21:54:00
5:59 PM,73.4,69.8,88,29.93,3.0,Calm,Calm,-,0.00,Rain-Thunderstorm,Light Thunderstorms and Rain,0,2013-08-31 21:59:00
6:45 PM,71.6,69.8,94,29.89,10.0,Calm,Calm,-,0.00,Rain,Light Rain,0,2013-08-31 22:45:00
6:54 PM,71.1,69.1,93,29.87,8.0,SSE,3.5,-,0.01,Rain,Light Rain,150,2013-08-31 22:54:00
7:54 PM,72.0,70.0,93,29.90,10.0,North,3.5,-,0.00,,Clear,360,2013-08-31 23:54:00
8:54 PM,70.0,69.1,97,29.93,8.0,Calm,Calm,-,N/A,,Clear,0,2013-09-01 00:54:00
9:54 PM,70.0,69.1,97,29.94,7.0,North,3.5,-,N/A,,Clear,10,2013-09-01 01:54:00
10:42 PM,69.8,68.0,94,29.94,1.8,Calm,Calm,-,N/A,,Clear,0,2013-09-01 02:42:00
10:52 PM,69.8,69.8,100,29.94,3.0,Calm,Calm,-,N/A,,Clear,0,2013-09-01 02:52:00
10:54 PM,69.1,69.1,100,29.92,5.0,Calm,Calm,-,N/A,,Clear,0,2013-09-01 02:54:00
11:17 PM,68.0,68.0,100,29.93,1.8,Calm,Calm,-,N/A,,Clear,0,2013-09-01 03:17:00
11:28 PM,69.8,68.0,94,29.93,3.0,Calm,Calm,-,N/A,,Clear,0,2013-09-01 03:28:00
11:46 PM,68.0,68.0,100,29.93,1.8,Calm,Calm,-,N/A,,Clear,0,2013-09-01 03:46:00
11:54 PM,68.0,68.0,100,29.91,1.2,Calm,Calm,-,N/A,,Clear,0,2013-09-01 03:54:00
11:59 PM,68.0,68.0,100,29.93,3.0,Calm,Calm,-,N/A,,Clear,0,2013-09-01 03:59:00